www.pogodaiklimat.ru

Погода и климат >> Архив погоды >> Кувейт >> Аль-Вафра


ПОГОДА в Аль-Вафре

  • Прогноз погоды в Аль-Вафре
  • Монитор погоды в Аль-Вафре

АРХИВ ПОГОДЫ в Аль-Вафре

Время (UTC), дата Ветер
(напр.,м/с)
 
Видим.   Явления Облачность Т
(С)
Тd
(С)
f
(%)
Тe
(С)
Тes
(С)
Комфортность P
(гПа)
Po
(гПа)
Тmin
(С)
Tmax
(С)
R
(мм)
R24
(мм)
S
(см)
21 12.07 СЗ 5-9
{10}
20 км н/о +37.7 +5.4 14 +35 +35 очень
жарко
998.3 986.6 +31.6 +47.5
00 13.07 СЗ 3-4
{10}
20 км н/о +33.2 +5.9 18 +31 +31 жарко 998.3 986.5
03 13.07 СЗ 3-6
{6}
20 км н/о +33.6 +6.7 19 +32 +32 жарко 999.4 987.6 27
06 13.07 С 5-10
{11}
18 км н/о +41.5 +8.1 13 +39 +39 очень
жарко
999.7 988.1 309
09 13.07 С 7-14
{16}
10 км н/о +45.4 +7.6 11 +43 +43 опасность
перегрева
998.5 987.1 443
12 13.07 СЗ 6-11
{16}
14 км н/о +46.3 +6.6 9 +44 +44 опасность
перегрева
997.4 986.0 313
15 13.07 СЗ 4-9
{14}
16 км н/о +42.6 +2.3 8 +39 +39 очень
жарко
997.3 985.8 28
18 13.07 СЗ 4-9
{14}
14 км н/о +39.2 +3.3 11 +36 +36 очень
жарко
999.3 987.7
21 13.07 СЗ 4-7
{10}
18 км н/о +36.2 +3.4 13 +33 +33 жарко 999.7 988.0 +30.9 +46.6
00 14.07 СЗ 3-5
{10}
19 км н/о +32.2 +3.5 16 +30 +30 жарко 999.5 987.6
03 14.07 З 2-4
{5}
12 км н/о +31.6 +3.0 16 +29 +29 жарко 1000.7 988.8 22
06 14.07 С 3-6
{8}
19 км н/о +39.9 +7.0 14 +38 +38 очень
жарко
1001.1 989.5 302
09 14.07 СЗ 5-9
{14}
20 км н/о +43.6 +5.5 10 +41 +41 опасность
перегрева
1000.0 988.5 458
12 14.07 СЗ 5-13
{16}
20 км н/о +44.4 +6.7 11 +42 +42 опасность
перегрева
998.4 987.0 343
15 14.07 СЗ 5-8
{13}
20 км н/о +40.5 +4.4 11 +37 +37 очень
жарко
998.4 986.8 18
18 14.07 СЗ 4-6
{13}
20 км н/о +37.6 +3.9 12 +34 +34 очень
жарко
999.9 988.2
21 14.07 СЗ 2-4
{8}
20 км н/о +33.3 +5.4 18 +31 +31 жарко 999.7 987.8 +29.1 +45.0
00 15.07 СЗ 3-4
{8}
20 км н/о +31.5 +7.8 23 +30 +30 жарко 999.2 987.3
03 15.07 СЗ 2-4
{4}
19 км н/о +31.9 +9.8 26 +31 +31 жарко 999.8 987.9 26
06 15.07 С 6-10
{10}
20 км н/о +39.8 +9.3 16 +38 +38 очень
жарко
999.9 988.3 310
09 15.07 СЗ 7-15
{15}
18 км н/о +43.7 +8.6 12 +42 +42 опасность
перегрева
999.0 987.5 452
12 15.07 СЗ 8-15
{17}
9000 м дым н/о +44.1 +5.9 10 +41 +41 опасность
перегрева
997.3 985.9 318
15 15.07 СЗ 6-11
{17}
14 км н/о +41.2 +2.2 9 +38 +38 очень
жарко
996.8 985.3 26
21 15.07 СЗ 4-7
{8}
19 км н/о +35.4 +4.1 14 +32 +32 жарко 997.4 985.6 +29.3 +44.9
00 16.07 СЗ 5-8
{11}
20 км н/о +33.9 +4.9 16 +31 +31 жарко 996.4 984.6
03 16.07 СЗ 5-8
{9}
19 км н/о +33.0 +5.4 18 +31 +31 жарко 997.6 985.8 24
06 16.07 СЗ 6-10
{12}
14 км н/о +40.2 +7.8 14 +38 +38 очень
жарко
997.5 985.9 310
09 16.07 С 8-15
{20}
3100 м дым н/о +45.6 +5.9 9 +43 +43 опасность
перегрева
996.7 985.3 397
12 16.07 СЗ 8-15
{20}
4000 м дым н/о +45.6 +5.1 9 +43 +43 опасность
перегрева
995.7 984.3 273
15 16.07 СЗ 7-14
{17}
5000 м дым н/о +42.7 +1.1 8 +39 +39 очень
жарко
995.7 984.2 37
18 16.07 СЗ 6-11
{17}
10 км н/о +39.0 +2.3 10 +35 +35 очень
жарко
997.9 986.3
21 16.07 СЗ 4-7
{13}
19 км н/о +35.5 +7.7 18 +34 +34 очень
жарко
998.4 986.6 +32.3 +46.3
00 17.07 СЗ 5-8
{13}
20 км н/о +33.2 +7.5 20 +31 +31 жарко 997.8 986.0
03 17.07 СЗ 4-8
{9}
20 км н/о +32.3 +7.7 22 +31 +31 жарко 998.9 987.0 15
06 17.07 С 7-14
{14}
19 км н/о +39.2 +8.5 16 +37 +37 очень
жарко
999.7 988.1 304
09 17.07 СЗ 8-14
{15}
11 км н/о +43.2 +8.7 13 +41 +41 опасность
перегрева
999.1 987.6 431
12 17.07 СЗ 7-14
{15}
18 км н/о +43.5 +7.9 12 +41 +41 опасность
перегрева
998.0 986.5 322
15 17.07 СЗ 5-13
{14}
15 км н/о +40.4 +5.1 12 +38 +38 очень
жарко
998.3 986.7 27
18 17.07 СЗ 4-6
{14}
16 км н/о +36.7 +6.1 15 +34 +34 очень
жарко
999.8 988.1
21 17.07 СЗ 3-6
{8}
19 км н/о +34.1 +7.3 19 +32 +32 жарко 999.5 987.7 +31.4 +44.7
00 18.07 СЗ 3-5
{8}
20 км н/о +31.1 +8.0 24 +30 +30 жарко 999.0 987.1
03 18.07 З 4-6
{6}
19 км н/о +30.0 +8.0 25 +29 +29 жарко 999.4 987.4 23
06 18.07 СЗ 5-8
{10}
19 км н/о +38.6 +10.6 19 +38 +38 очень
жарко
999.9 988.2 283
09 18.07 С 7-14
{15}
6000 м дым н/о +44.3 +10.2 13 +43 +43 опасность
перегрева
997.9 986.5 430
12 18.07 С 6-12
{17}
1500 м дым н/о +44.9 +8.4 12 +43 +43 опасность
перегрева
996.0 984.6 119
15 18.07 С 7-14
{16}
3000 м дым н/о +43.8 +4.7 9 +41 +41 опасность
перегрева
996.1 984.7 32
18 18.07 СЗ 5-11
{16}
8000 м дым н/о +40.3 +6.7 13 +38 +38 очень
жарко
997.8 986.2
21 18.07 СЗ 6-12
{13}
8000 м дым н/о +37.7 +6.9 15 +35 +35 очень
жарко
997.3 985.6 +29.2 +45.9
00 19.07 СЗ 5-9
{13}
10 км н/о +35.4 +6.5 17 +33 +33 жарко 997.3 985.6
03 19.07 С 4-8
{11}
11 км н/о +33.8 +7.1 19 +32 +32 жарко 998.4 986.6 8
06 19.07 С 6-14
{14}
13 км н/о +39.8 +7.6 14 +37 +37 очень
жарко
998.2 986.6 225
09 19.07 С 7-14
{17}
1400 м дым н/о +44.7 +9.4 12 +43 +43 опасность
перегрева
998.0 986.6 305
12 19.07 С 8-17
{17}
1300 м дым н/о +44.4 +5.7 10 +42 +42 опасность
перегрева
996.6 985.2 109
15 19.07 С 7-14
{19}
1600 м дым н/о +42.5 +1.3 8 +39 +39 очень
жарко
997.4 985.9 31
18 19.07 С 4-9
{19}
6000 м дым н/о +38.0 +2.3 11 +35 +35 очень
жарко
998.9 987.2

 

Местоположение метеостанции Аль-Вафра (Кувейт): широта 28.56 долгота 48.06 высота над уровнем моря 107 м.

В архиве по умолчанию представлена погода в Аль-Вафре за последнюю неделю. Архивные данные за месяц целиком и за предыдущие месяцы, начиная с января 2011 года, Вы можете получить, выбрав интересующий диапазон дат из раскрывающегося списка и нажав кнопку "Ввод!".


*Определитесь, кто Вы:
робот инопланетянин человек

Внимание! Время в таблицах - всемирное. Для получения местного времени необходимо прибавить поправку, которая равна 3 ч.

Смотрите также архив погоды в соседних городах и на ближайших метеорологических станциях:

Погода в Порту Juluiah (Кувейт) (41 км)
Погода в Умм-Аль-Марадим (Кувейт) (59 км)
Погода в Нувасибе (Кувейт) (68 км)
Погода в Эль-Кувейте (Кувейт) (74 км)
Погода в Минагише (Кувейт) (77 км)
Погода на Экспериментальной ферме (Кувейт) (82 км)
Погода в Сулайбии (Кувейт) (86 км)
Погода в Кувейт Сити (Кувейт) (86 км)
Погода в Аль-Шуаиба (Кувейт) (88 км)
Погода в Эль-Джахра (Кувейт) (93 км)

Пояснения к столбцам:

Ветер - указаны скорость ветра в м/с - средняя за 10 мин, порывы в срок и между сроками (в фигурных скобках) и направление, откуда дует ветер: С - северный, СВ - северо-восточный, В - восточный, ЮВ - юго-восточный, Ю - южный, ЮЗ - юго-западный, З - западный, СЗ - северо-западный.
Видимость - горизонтальная дальность видимости в метрах или километрах. При видимости от 1 до 10 км при отсутствии осадков обычно наблюдается дымка, при ухудшении видимости до 1 км и менее - туман. В сухую погоду видимость может ухудшаться дымом, пылью или мглою.
Явления - указаны атмосферные явления, наблюдавшиеся в срок или в последний час перед сроком; фигурными скобками обозначены явления, наблюдавшиеся между сроками (за 1-3 часа до срока); квадратными скобками обозначены град или гололедные отложения с указанием их диаметра в мм.
Облачность - указаны через наклонную черту общая и нижняя облачность в баллах и высота нижней границы облаков в метрах; квадратными скобками обозначены формы облаков: Ci - перистые, Cs - перисто-слоистые, Cc - перисто-кучевые, Ac - высококучевые, As - высокослоистые, Sc - слоисто-кучевые, Ns - слоисто-дождевые, Cu - кучевые, Cb - кучево-дождевые. Подробнее классификацию облаков см. в Атласе облаков (PDF).
T - Температура воздуха - температура, измеренная на высоте 2 м над землей.
Td - Температура точки росы - температура, при понижении до которой содержащийся в воздухе водяной пар достигнет насыщения.
f - Относительная влажность воздуха - влажноcть воздуха, измеренная на высоте 2 м над землей.
Te - Эффективная температура - температура, которую ощущает одетый по сезону человек в тени. Характеристика душности погоды. При расчете учитывается влияние влажности воздуха и скорости ветра на теплоощущения человека.
Tes - Эффективная температура на солнце - температура, которую ощущает человек, с поправкой на солнечный нагрев. Характеристика знойности погоды. Зависит от высоты солнца над горизонтом, облачности и скорости ветра. Ночью, в пасмурную погоду, а также при ветре 12 м/с и более поправка равна нулю.
P - Атмосферное давление - приведенное к уровню моря атмосферное давление.
Po - Атмосферное давление - измеренное на уровне метеостанции атмосферное давление.
Tmin - Минимальная температура - минимум температуры воздуха на высоте 2 м над землей.
Tmax - Максимальная температура - максимум температуры воздуха на высоте 2 м над землей.
R - Количество осадков - Количество выпавших осадков за период времени, мм. При наведении курсора мыши на число - период времени, за который выпало указанное количество осадков.
R24 - Количество осадков - Количество выпавших осадков за 24 часа, мм.
S - Снежный покров - Высота снежного покрова, см. При наведении курсора мыши на число - состояние снежного покрова и степень покрытия местности в баллах.